Regional Weather Roundup
Issued by NWS Albany, NY

Home | Current Version | Previous Version | Text Only | Print | Product List | Glossary On
Versions: 1 2 3 4 5 6 7 8 9 10 11 12 13 14 15 16 17 18 19 20 21 22 23 24 25 26 27 28
000
ASUS41 KALY 241010
RWRALY

NEW YORK STATE HOURLY WEATHER ROUNDUP
NATIONAL WEATHER SERVICE ALBANY NY
600 AM EDT WED MAY 24 2017

NOTE: "FAIR" INDICATES FEW OR NO CLOUDS BELOW 12,000 FEET WITH NO
SIGNIFICANT WEATHER AND/OR NO OBSTRUCTIONS TO VISIBILITY.

NYZ032-033-038>043-046>054-057>066-NYZ062>081-082-084-241100-
EAST


CITY           SKY/WX    TMP DP  RH WIND       PRES   REMARKS
ALBANY         CLOUDY    53  50  89 NW3       29.77R
GLENS FALLS    NOT AVBL
POUGHKEEPSIE   CLOUDY    53  50  89 CALM      29.74R
NEWBURGH       MOCLDY    54  54 100 CALM      29.76R
MONTGOMERY     CLOUDY    54  51  90 N5        29.74R
WHITE PLAINS   LGT RAIN  56  54  93 CALM      29.73S
ISLIP          LGT RAIN  55  55 100 NE6       29.72F
NEW YORK CITY  LGT RAIN  58  53  84 E5        29.72S
CENTRAL PARK   CLOUDY    56  54  93 VRB3      29.76R
$$

NYZ005>009-017-018-044>046-055-056-241100-
CENTRAL


CITY           SKY/WX    TMP DP  RH WIND       PRES   REMARKS
FULTON         CLOUDY    51  50  96 CALM      29.74S FOG
SYRACUSE       CLOUDY    50  49  96 E5        29.73S
ROME           MOCLDY    49  48  97 SE3       29.77S
ELMIRA         CLOUDY    48  45  89 CALM      29.73S
BINGHAMTON     CLOUDY    50  46  86 NE5       29.74F
MONTICELLO     CLOUDY    48  48 100 CALM      29.76F
$$

NYZ026>034-041>043-087-241100-
NORTH


CITY           SKY/WX    TMP DP  RH WIND       PRES   REMARKS
WATERTOWN      CLOUDY    48  48 100 CALM      29.74R FOG
FORT DRUM      NOT AVBL
OGDENSBURG     FAIR      51  50  97 CALM      29.75S
MASSENA        PTCLDY    48  47  96 CALM      29.77R
SARANAC LAKE   CLOUDY    39  39 100 CALM      29.78S FOG
PLATTSBURGH    CLEAR     48  47  96 CALM      29.77R FOG
$$

NYZ001>004-010>016-019>021-085-241100-
WEST


CITY           SKY/WX    TMP DP  RH WIND       PRES   REMARKS
NIAGARA FALLS  CLOUDY    55  48  77 CALM      29.69S
BUFFALO        CLOUDY    57  48  72 E6        29.69S
DUNKIRK        MOCLDY    57  47  69 CALM      29.69R
JAMESTOWN      CLOUDY    54  43  66 CALM      29.70R
WELLSVILLE     MOCLDY    51  44  77 CALM      29.74R
ROCHESTER      CLOUDY    55  50  83 CALM      29.71S
PENN YAN       PTCLDY    51  47  86 CALM      29.73S
$$

             KEY
       WCI = WIND CHILL INDEX
       VSB = VISIBILITY
       HX  = HEAT INDEX
$$




USA.gov is the U.S. government's official web portal to all federal, state and local government web resources and services.